Regional Weather Roundup
Issued by NWS Lake Charles, LA

Home | Current Version | Previous Version | Text Only | Print | Product List | Glossary On
Versions: 1 2 3 4 5 6 7 8 9 10 11 12 13 14 15 16 17 18 19 20 21 22 23 24 25 26 27
000
ASUS44 KLCH 280010
RWRLCH
REGIONAL WEATHER ROUNDUP
NATIONAL WEATHER SERVICE LAKE CHARLES LA
700 PM CDT MON MAR 27 2017

Note: "fair" indicates few or no clouds below 12,000 feet with no
significant weather and/or obstructions to visibility.


ACROSS SOUTHEAST TEXAS

CITY           SKY/WX    TMP DP  RH WIND       PRES   REMARKS
BEAUMONT       PTCLDY    75  68  78 S12       29.87S
BEAUMONT CITY  FAIR     N/A N/A N/A S8        29.87S
ORANGE         PTCLDY    75  70  83 S9G16     29.90S
JASPER           N/A     80  69  70 S7        29.87S
$$

ACROSS CENTRAL LOUISIANA

CITY           SKY/WX    TMP DP  RH WIND       PRES   REMARKS
LEESVILLE      CLEAR     76  68  77 S12       29.86R
FULLERTON      MOCLDY    77  65  66 VRB3      29.84S
ALEXANDRIA INT LGT RAIN  75  66  73 S9        29.85R
ESLER FIELD    PTCLDY    77  64  64 SW13G18   29.86R
DERIDDER       FAIR      77  65  66 S10       29.89R HAZE
OAKDALE        CLOUDY    75  65  71 S5        29.88S
OPELOUSAS      FAIR      76  65  70 MISG      29.90S
$$

ACROSS SOUTHWEST AND SOUTH CENTRAL LOUISIANA

CITY           SKY/WX    TMP DP  RH WIND       PRES   REMARKS
SULPHUR        CLEAR     75  68  79 S8        29.90S
LAKE CHARLES   CLEAR     75  68  78 S6        29.89S
CHENNAULT INT  PTCLDY    75  68  78 S8        29.90R
CAMERON PHI    CLOUDY    73  72  94 S9        29.88S
DEQUINCY       FAIR      75  66  75 S9        29.88S
JENNINGS       FAIR      75  67  77 S8        29.90S
LAFAYETTE      PTCLDY    78  69  73 S8        29.91S
NEW IBERIA     CLEAR     75  67  76 S12       29.92S
ABBEVILLE      CLOUDY    73  72  94 S10       29.92S
PATTERSON      MOCLDY    74  68  81 S8        29.94R
SALT POINT       N/A     73  69  87 VRB5      29.91S
$$

SELECTED SITES ACROSS THE REGION

CITY           SKY/WX    TMP DP  RH WIND       PRES   REMARKS
HOUSTON BUSH   PTCLDY    81  66  60 S13       29.82S
HOUSTON HOBBY  PTCLDY    78  66  66 S13       29.83S
GALVESTON      CLOUDY    76  72  87 SE8       29.87S
COLLEGE STAT   CLEAR     80  67  64 SE3       29.81S
CONROE         CLOUDY    79  69  71 E8        29.82S
HUNTSVILLE     CLEAR     81  65  58 CALM      29.82F
LUFKIN         CLEAR     78  66  66 S5        29.83S
SHREVEPORT     PTCLDY    78  65  63 W9        29.83R
MONROE         MOCLDY    80  65  59 S7        29.82S
NATCHEZ MS     NOT AVBL
BATON ROUGE    PTCLDY    77  62  59 S16       29.90S
N.O. INTL ARPT MOCLDY    76  66  71 S13       29.93R
SLIDELL        PTCLDY    76  67  73 S12       29.92F
$$

MARINE REPORTS

STATION/POSITION TIME  SKY/WX   TEMP    WIND        PRES    VSBY
                                AIR SEA DIR/SP/G
                 (UTC)          (F)     (DEG/KT/KT) (MB)    (MI)
BUOY 30 S HIGH I 2350            73 74  130/  8/ 10 1011.2F
WVE H/P(F/S)=  3/ 7

SEA RIM ST PARK  0000            73     150/  8/ 10 1012.2F
PORT ARTHUR      2348               74  160/  7/  9 1011.9F
SABINE PASS N    2342            74 76  160/  8/ 11 1013.2F
TEXAS POINT      NOT AVBL
CALCASIEU PASS   2342            73 74  180/  8/ 10   N/A
LK CHARLES BEACH 2342            76 71              1012.6R
MARSH ISLAND     2300            74                   N/A
FRESH WATER LOCK 2342            73 77  160/ 14/ 17 1012.5R
AMERADA PASS     2342            74 68  150/  5/ 12 1013.1R
$$




USA.gov is the U.S. government's official web portal to all federal, state and local government web resources and services.